Regional Weather Roundup
Issued by NWS

Home | Current Version | Previous Version | Graphics & Text | Print | Product List | Glossary On
Versions: 1 2 3 4 5 6 7 8 9 10 11 12 13 14 15 16 17 18 19 20 21 22 23 24 25 26 27 28 29 30 31 32 33 34 35 36 37 38 39 40 41 42 43 44 45 46 47 48 49 50
741
ASUS43 KFSD 291910
RWRSD

WEATHER ROUNDUP FOR SOUTH DAKOTA
NATIONAL WEATHER SERVICE SIOUX FALLS SD
200 PM CDT SAT APR 29 2017

NOTE: "FAIR" INDICATES FEW OR NO CLOUDS BELOW 12,000 FEET WITH NO
SIGNIFICANT WEATHER AND/OR OBSTRUCTIONS TO VISIBILITY.


SDZ001>005-009-010-012>017-292000-
NORTHWEST AND NORTH CENTRAL SOUTH DAKOTA

CITY           SKY/WX    TMP DP  RH WIND       PRES   REMARKS
BUFFALO          N/A     54  18  24 VRB5      30.20S
FAITH            N/A     54  16  22 N7        30.25S
MOBRIDGE       SUNNY     60  17  18 S12       30.25R
$$

SDZ012>016-024>037-041>051-057-063-072>074-292000-
SOUTHWEST AND SOUTH CENTRAL SOUTH DAKOTA

CITY           SKY/WX    TMP DP  RH WIND       PRES   REMARKS
RAPID CTY ARPT SUNNY     52  17  25 E3        30.26S
PIERRE         SUNNY     56  14  19 E6        30.25R
CUSTER         CLOUDY    39  11  31 VRB6      30.24S
ELLSWORTH AFB  SUNNY     51  18  27 CALM      30.26S
PHILIP         SUNNY     55  14  19 MISG      30.25S
PINE RIDGE     MOSUNNY   51  20  29 NE6       30.24F
SPEARFISH      FAIR      48  14  25 VRB5G12   30.26F
WINNER         MOCLDY    54  18  24 NE15G23   30.25R
$$

SDZ004>011-016>023-039-040-292000-
NORTHEAST SOUTH DAKOTA

CITY           SKY/WX    TMP DP  RH WIND       PRES   REMARKS
ABERDEEN       MOSUNNY   55  14  19 E7        30.28F
WATERTOWN      CLOUDY    51  22  31 NE9       30.27R
BROOKINGS      MOSUNNY   50  20  30 NE13      30.27R
SISSETON         N/A     55  19  24 NE8       30.29S
$$

SDZ017-020-022-023-036>040-048>070-292000-
SOUTHEAST SOUTH DAKOTA

CITY           SKY/WX    TMP DP  RH WIND       PRES   REMARKS
SIOUX FALLS    CLOUDY    51  28  41 E18G25    30.24R
HURON          MOSUNNY   55  22  27 N15G22    30.27S
CHAMBERLAIN    CLOUDY    54  20  25 N9        30.26R
MITCHELL       CLOUDY    57  20  23 NE18G26   30.26R
YANKTON        CLOUDY    50  27  40 NE18      30.21R
$$

ABBREVIATIONS USED IN REMARKS
   TC - TEMPERATURE IN CELSIUS
  WCI - WIND CHILL INDEX
   HX - HEAT INDEX
  VSB - VISIBILITY





USA.gov is the U.S. government's official web portal to all federal, state and local government web resources and services.